OKEAN-0
1 25860U 99039A 12235.91132474 .00000198 00000-0 37425-4 0 07165
2 25860 097.9431 197.2169 0001825 057.4495 302.6889 14.74270187704403
NOAA-16
1 26536U 00055A 12235.89378853 .00000257 00000-0 16316-3 0 08641
2 26536 099.0877 279.0297 0009810 254.9819 105.0254 14.12771750614458
NOAA-17
1 27453U 02032A 12235.75271775 .00000107 00000-0 63709-4 0 08099
2 27453 098.3330 259.4192 0011112 326.0892 033.9570 14.24472389528238
NOAA-18
1 28654U 05018A 12235.69008965 -.00000071 00000-0 -13770-4 0 02923
2 28654 099.0533 194.3533 0014100 331.9003 028.1403 14.11686914373944
NOAA-19
1 33591U 09005A 12235.71292302 -.00000107 00000-0 -34925-4 0 04817
2 33591 098.8663 174.6871 0013604 189.8622 170.2280 14.11373225182399
HUBBLE
1 20580U 90037B 12234.94550393 .00001009 00000-0 61377-4 0 577
2 20580 028.4707 073.1580 0003091 042.7334 317.3482 15.02700656 24630
ISS
1 25544U 98067A 12236.87676541 .00001686 00000-0 37485-4 0 1666
2 25544 051.6470 144.4435 0014946 353.5533 123.2691 15.50059634788545
CO-58
1 28895U 05043F 12235.59870461 .00000521 00000-0 11579-3 0 02590
2 28895 097.9058 098.9223 0016857 306.1371 053.8293 14.60712224363352
FALCON
1 30776U 07006E 12235.40633900 .00001876 00000-0 12230-3 0 04307
2 30776 035.4352 232.2498 0002603 261.4381 098.6043 15.07969461300251
MAST
1 31126U 07012K 12235.96555361 .00000253 00000-0 66876-4 0 05528
2 31126 097.8745 243.1648 0092498 262.6241 096.4438 14.54230109283970
CAPE1
1 31130U 07012P 12236.53898561 .00000434 00000-0 10918-3 0 5491
2 31130 097.8837 240.0525 0100181 274.4988 084.4767 14.53034513283551
COMPASS
1 32787U 08021E 12236.82730754 .00000953 00000-0 11999-3 0 3890
2 32787 097.7943 296.6546 0014991 194.6164 165.4563 14.84225989233843
AAUSAT2
1 32788U 08021F 12236.84924244 .00000639 00000-0 81884-4 0 3827
2 32788 097.7955 297.0956 0014394 194.0356 166.0449 14.84563105233879
DO-64
1 32789U 08021G 12235.74796000 .00002419 00000-0 28108-3 0 03998
2 32789 097.8061 298.3027 0014420 194.5780 165.5014 14.86208810233769
CO-66
1 32791U 08021J 12236.70957796 .00000387 00000-0 53290-4 0 3802
2 32791 097.7941 296.2253 0015259 195.4389 164.6356 14.83600322233751
RS-30
1 32953U 08025A 12236.57793380 .00000010 00000-0 00000 0 0 792
2 32953 082.4973 253.2301 0019158 156.7697 203.4255 12.43027021192935
PHARMSAT
1 35002U 09028B 12226.86484473 .07728342 73476-5 57159-3 0 789
2 35002 040.4341 050.6671 0012079 300.9773 059.0492 16.39309245183554
METEOR-M
1 35865U 09049A 12236.70431918 -.00000030 00000-0 59842-5 0 7104
2 35865 098.6486 289.7427 0001878 201.7410 158.3685 14.21867469152190
RS-38
1 35869U 09049E 12236.78572638 .00000024 00000-0 30486-4 0 7127
2 35869 098.6436 289.8069 0004006 208.8547 151.2408 14.22083210152221
JUGNU
1 37839U 11058B 12235.52537067 .00000620 00000-0 19019-3 0 2111
2 37839 019.9645 316.3534 0018474 234.0310 125.8295 14.12074641 44637
SRMSAT
1 37841U 11058D 12235.52871304 .00000264 00000-0 00000 0 0 2120
2 37841 019.9758 322.5024 0012181 199.4425 160.5515 14.10155568 44567
RAX-2
1 37853U 11061D 12235.90162591 .00003179 00000-0 25725-3 0 02651
2 37853 101.7092 306.4737 0246008 160.6939 200.3791 14.80427444044279
AUBIESAT
1 37854U 11061E 12235.90593738 .00003818 00000-0 30152-3 0 02653
2 37854 101.7103 306.8214 0247095 159.9049 201.2096 14.80857057044261
HRBE
1 37855U 11061F 12236.87258340 .00003458 00000-0 27490-3 0 2626
2 37855 101.7121 308.1609 0247515 157.3294 203.9055 14.80693995 44405
RS-39
1 38051U 11062C 12236.75833906 .00005254 00000-0 21876-3 0 6352
2 38051 051.6400 197.6055 0012444 282.5553 150.3155 15.25303814 32280
E-STAR
1 38079U 12006C 12236.87083318 .00024307 00000-0 59536-3 0 4473
2 38079 069.4842 160.5306 0726057 162.4489 200.3350 14.18748955 27176
GOLIAT
1 38085U 12006J 12236.76963504 .00022622 00000-0 54831-3 0 4170
2 38085 069.4860 161.2695 0732153 162.9033 199.8216 14.17679282 27141
HORYU-2
1 38340U 12025D 12236.34806745 .00000933 00000-0 16341-3 0 1051
2 38340 098.1782 176.2431 0013891 115.8245 244.4474 14.70104122 14340
RS-40
1 38736U 12041D 12235.56880548 .00000010 00000-0 00000-0 0 00297
2 38736 082.4819 341.3085 0017679 258.4196 101.4898 12.42645990003152
